Eau Claire, WI

2:02 PM CDT on March 23, 2017 (GMT -0500)
Chippewa Valley Regional

Weather History for KEAU - November, 2014

Change the Weather History Date:

Tuesday, November 11, 2014

  Actual Average Record
Temperature  
Mean Temperature 23 °F 36 °F  
Max Temperature 31 °F 44 °F 67 °F (2012)
Min Temperature 14 °F 27 °F 0 °F (1986)
Degree Days  
Heating Degree Days 42 29  
Month to date heating degree days 324 294  
Since 1 July heating degree days 1100 1078  
Cooling Degree Days 0 0  
Month to date cooling degree days 0 0  
Year to date cooling degree days 500 579  
Moisture  
Dew Point 22 °F    
Average Humidity 80    
Maximum Humidity 92    
Minimum Humidity 68    
Precipitation  
Precipitation 0.27 in 0.06 in 1.38 in (2015)
Month to date precipitation 1.02 0.70  
Year to date precipitation 41.58 28.84  
Snow  
Snow 4.00 in 0.20 in 4.00 in (2014)
Month to date snowfall 5.4 1.3  
Since 1 July snowfall 6.0 1.7  
Since 1 September snowfall 6.0 1.7  
Snow Depth 4.00 in    
Sea Level Pressure  
Sea Level Pressure 29.97 in    
Wind  
Wind Speed 11 mph (NNW)    
Max Wind Speed 21 mph    
Max Gust Speed 27 mph    
Visibility 5 miles    
Events Rain , Snow    
T = Trace of Precipitation, MM = Missing Value Source: NWS Daily Summary

Daily Weather History Graph

Daily Weather History Graph

Search for Another Location

Airport or City:

Trip Planner

Search our weather history database for the weather conditions in past years. The results will help you decide how hot, cold, wet, or windy it might be!

Date:

Astronomy

Nov. 11, 2014 Rise Set
Actual Time 6:57 AM CST 4:41 PM CST
Civil Twilight 6:26 AM CST 5:12 PM CST
Nautical Twilight 5:51 AM CST 5:48 PM CST
Astronomical Twilight 5:16 AM CST 6:22 PM CST
Moon 9:05 PM CST (11/11) 11:05 AM CST (11/11)
Length of Visible Light 10h 46m
Length of Day
9h 43m
Waning Gibbous, 76% of the Moon is Illuminated
Nov 11
Waning Gibbous
Nov 14
Last Quarter
Nov 22
New
Nov 29
First Quarter
Dec 6
Full

Hourly Weather History & Observations

Time (CST) Temp. Windchill Dew Point Humidity Pressure Visibility Wind Dir Wind Speed Gust Speed Precip Events Conditions
12:06 AM 30.0 °F 20.5 °F 28.0 °F 92% 29.78 in 5.0 mi North 11.5 mph - 0.00 in Rain Light Freezing Rain
12:17 AM 30.0 °F 20.0 °F 28.0 °F 92% 29.77 in 4.0 mi North 12.7 mph 20.7 mph 0.00 in Snow Light Snow
12:26 AM 30.9 °F 20.7 °F 28.0 °F 89% 29.78 in 4.0 mi North 13.8 mph - 0.00 in Snow Light Snow
12:39 AM 30.9 °F 21.2 °F 28.0 °F 89% 29.75 in 4.0 mi North 12.7 mph 23.0 mph 0.00 in Snow Light Snow
12:56 AM 30.9 °F 22.2 °F 28.0 °F 89% 29.78 in 2.5 mi North 10.4 mph 23.0 mph 0.00 in Snow Light Snow
1:36 AM 30.9 °F 20.7 °F 28.0 °F 89% 29.76 in 3.0 mi North 13.8 mph 19.6 mph 0.00 in Snow Light Snow
1:44 AM 30.9 °F 21.7 °F 28.0 °F 89% 29.78 in 2.5 mi North 11.5 mph - 0.00 in Snow Light Snow
1:56 AM 30.9 °F 22.8 °F 28.0 °F 89% 29.83 in 1.5 mi North 9.2 mph - 0.00 in Snow Light Snow
2:02 AM 30.9 °F 21.7 °F 28.0 °F 89% 29.81 in 1.2 mi NNW 11.5 mph - 0.00 in Snow Light Snow
2:22 AM 30.0 °F 19.5 °F 28.0 °F 92% 29.81 in 1.0 mi NNW 13.8 mph 20.7 mph 0.00 in Snow Light Snow
2:29 AM 30.0 °F 21.1 °F 28.0 °F 92% 29.82 in 0.8 mi NNW 10.4 mph 20.7 mph 0.00 in Snow Light Snow
2:56 AM 28.9 °F 18.2 °F 26.1 °F 89% 29.85 in 0.8 mi NNW 13.8 mph - 0.00 in Snow Light Snow
3:23 AM 28.0 °F 17.0 °F 25.0 °F 88% 29.82 in 1.0 mi North 13.8 mph - 0.00 in Snow Light Snow
3:56 AM 28.0 °F 18.1 °F 25.0 °F 88% 29.86 in 1.2 mi North 11.5 mph 19.6 mph 0.00 in Snow Light Snow
4:56 AM 28.0 °F 18.1 °F 25.0 °F 88% 29.88 in 1.2 mi North 11.5 mph 20.7 mph 0.00 in Snow Light Snow
5:56 AM 28.0 °F 18.6 °F 25.0 °F 88% 29.90 in 1.2 mi North 10.4 mph 19.6 mph 0.00 in Snow Light Snow
6:16 AM 28.0 °F 17.5 °F 24.1 °F 85% 29.87 in 1.5 mi North 12.7 mph 23.0 mph 0.00 in Snow Light Snow
6:56 AM 27.0 °F 16.7 °F 24.1 °F 89% 29.93 in 1.8 mi North 11.5 mph 24.2 mph 0.00 in   Overcast
7:07 AM 27.0 °F 16.1 °F 24.1 °F 89% 29.90 in 1.8 mi North 12.7 mph 23.0 mph N/A   Overcast
7:21 AM 27.0 °F 15.6 °F 24.1 °F 89% 29.91 in 1.0 mi North 13.8 mph 21.9 mph N/A   Mist
7:29 AM 27.0 °F 15.2 °F 24.1 °F 89% 29.91 in 0.8 mi North 15.0 mph 20.7 mph N/A   Overcast
7:33 AM 27.0 °F 15.6 °F 24.1 °F 89% 29.91 in 1.0 mi North 13.8 mph 20.7 mph N/A   Mist
7:56 AM 27.0 °F 16.1 °F 23.0 °F 85% 29.96 in 1.0 mi North 12.7 mph 20.7 mph N/A   Mist
8:15 AM 27.0 °F 16.1 °F 23.0 °F 85% 29.93 in 2.5 mi North 12.7 mph 23.0 mph N/A   Overcast
8:19 AM 27.0 °F 15.6 °F 23.0 °F 85% 29.93 in 3.0 mi North 13.8 mph 24.2 mph N/A   Overcast
8:56 AM 27.0 °F 16.1 °F 23.0 °F 85% 29.98 in 4.0 mi North 12.7 mph - N/A   Overcast
9:38 AM 27.0 °F 15.6 °F 23.0 °F 85% 29.95 in 2.0 mi North 13.8 mph - N/A   Overcast
9:56 AM 28.0 °F 17.5 °F 21.9 °F 78% 29.99 in 2.5 mi North 12.7 mph 20.7 mph N/A   Haze
10:03 AM 28.0 °F 18.1 °F 23.0 °F 81% 29.96 in 4.0 mi North 11.5 mph - N/A   Haze
10:56 AM 28.9 °F 17.3 °F 21.9 °F 75% 30.01 in 10.0 mi NNW 16.1 mph - N/A   Overcast
11:19 AM 28.9 °F 17.7 °F 21.9 °F 75% 29.98 in 10.0 mi NNW 15.0 mph 21.9 mph N/A   Overcast
11:56 AM 28.9 °F 16.9 °F 21.0 °F 72% 30.03 in 10.0 mi NNW 17.3 mph 24.2 mph N/A   Overcast
12:56 PM 28.0 °F 17.0 °F 21.0 °F 75% 30.05 in 10.0 mi NNW 13.8 mph 20.7 mph N/A   Overcast
1:56 PM 27.0 °F 14.7 °F 19.0 °F 72% 30.07 in 10.0 mi NNW 16.1 mph 23.0 mph N/A   Overcast
2:56 PM 26.1 °F 13.6 °F 17.1 °F 69% 30.11 in 10.0 mi NNW 16.1 mph 20.7 mph N/A   Overcast
3:56 PM 25.0 °F 14.8 °F 17.1 °F 72% 30.14 in 10.0 mi NNW 10.4 mph - N/A   Overcast
4:36 PM 24.1 °F 12.5 °F 16.0 °F 71% 30.11 in 10.0 mi NW 12.7 mph - N/A   Overcast
4:56 PM 24.1 °F 14.4 °F 16.0 °F 71% 30.17 in 10.0 mi NW 9.2 mph - N/A   Overcast
5:37 PM 23.0 °F 13.1 °F 16.0 °F 74% 30.13 in 10.0 mi NW 9.2 mph - N/A   Overcast
5:56 PM 23.0 °F 12.4 °F 15.1 °F 72% 30.18 in 6.0 mi NW 10.4 mph - N/A   Haze
6:56 PM 21.0 °F 9.9 °F 15.1 °F 78% 30.20 in 10.0 mi NW 10.4 mph - N/A   Mostly Cloudy
7:16 PM 21.0 °F 11.4 °F 15.1 °F 78% 30.15 in 10.0 mi NW 8.1 mph - N/A   Scattered Clouds
7:56 PM 19.0 °F 10.0 °F 12.9 °F 77% 30.20 in 10.0 mi WNW 6.9 mph - N/A   Scattered Clouds
8:56 PM 18.0 °F 7.7 °F 12.9 °F 81% 30.21 in 10.0 mi West 8.1 mph - N/A   Clear
9:56 PM 17.1 °F 7.6 °F 12.0 °F 81% 30.22 in 9.0 mi West 6.9 mph - 0.00 in Snow Light Snow
10:56 PM 15.1 °F 5.2 °F 9.0 °F 77% 30.23 in 9.0 mi West 6.9 mph - 0.00 in Snow Light Snow
11:56 PM 15.1 °F 6.4 °F 9.0 °F 77% 30.23 in 9.0 mi West 5.8 mph - 0.00 in Snow Light Snow